Weather History for Manado, Indonesia

Change the Weather History Date:

Wednesday, May 29, 2013

  Actual Average Record
Temperature  
Mean Temperature 81 °F -  
Max Temperature 89 °F - - ()
Min Temperature 73 °F - - ()
Cooling Degree Days 16    
Growing Degree Days 31 (Base 50)    
Moisture  
Dew Point 74 °F    
Average Humidity 82    
Maximum Humidity 97    
Minimum Humidity 53    
Precipitation  
Precipitation 0.00 in - - ()
Sea Level Pressure  
Sea Level Pressure 29.85 in    
Wind  
Wind Speed 2 mph ()    
Max Wind Speed 6 mph    
Max Gust Speed -    
Visibility 5.9 miles    
Events Rain    
T = Trace of Precipitation, MM = Missing Value Source: Averaged Metar Reports

Daily Weather History Graph

Daily Weather History Graph

Search for Another Location

Airport:

Trip Planner

Search our weather history database for the weather conditions in past years. The results will help you decide how hot, cold, wet, or windy it might be!

Date:

Astronomy

May. 29, 2013 Rise Set
Actual Time 5:31 AM WITA 5:43 PM WITA
Civil Twilight 5:09 AM WITA 6:06 PM WITA
Nautical Twilight 4:43 AM WITA 6:31 PM WITA
Astronomical Twilight 4:17 AM WITA 6:58 PM WITA
Moon 9:56 PM WITA (5/29) 9:24 AM WITA (5/29)
Length of Visible Light 12h 56m
Length of Day
12h 12m
Waning Gibbous, 78% of the Moon is Illuminated
May 29
Waning Gibbous
Jun 1
Last Quarter
Jun 8
New
Jun 17
First Quarter
Jun 23
Full

Hourly Weather History & Observations

Time (WITA) Temp. Heat Index Dew Point Humidity Pressure Visibility Wind Dir Wind Speed Gust Speed Precip Events Conditions
12:00 AM 75.2 °F - 73.4 °F 94% 29.89 in 6.2 mi NE 3.5 mph - N/A   Partly Cloudy
12:30 AM 75.2 °F - 73.4 °F 94% 29.86 in 6.2 mi Calm Calm - N/A   Partly Cloudy
1:00 AM 75.2 °F - 73.4 °F 94% 29.86 in 6.2 mi SE 3.5 mph - N/A   Partly Cloudy
1:30 AM 75.2 °F - 73.4 °F 94% 29.86 in 6.2 mi Calm Calm - N/A   Partly Cloudy
2:00 AM 74 °F - 73 °F 97% 29.83 in 6 mi Calm Calm - -   Scattered Clouds
2:00 AM 73.4 °F - 71.6 °F 94% 29.83 in 6.2 mi Calm Calm - N/A   Partly Cloudy
5:00 AM 73.4 °F - 71.6 °F 94% 29.83 in 6.2 mi Calm Calm - N/A   Partly Cloudy
5:30 AM 75.2 °F - 73.4 °F 94% 29.83 in 6.2 mi Calm Calm - N/A   Partly Cloudy
6:00 AM 75.2 °F - 73.4 °F 94% 29.86 in 6.2 mi Calm Calm - N/A   Partly Cloudy
6:30 AM 75.2 °F - 73.4 °F 94% 29.86 in 6.2 mi Calm Calm - N/A   Partly Cloudy
7:00 AM 77.0 °F - 73.4 °F 89% 29.86 in 6.2 mi SSE 3.5 mph - N/A   Partly Cloudy
7:30 AM 78.8 °F - 75.2 °F 89% 29.86 in 6.2 mi SE 3.5 mph - N/A   Partly Cloudy
8:00 AM - - - % 29.86 in 6 mi Calm Calm - -   Scattered Clouds
8:00 AM 80.6 °F 86.2 °F 75.2 °F 84% 29.86 in 6.2 mi Calm Calm - N/A   Partly Cloudy
8:30 AM 82.4 °F 88.2 °F 73.4 °F 74% 29.86 in 6.2 mi South 3.5 mph - N/A   Scattered Clouds
9:00 AM 84.2 °F 90.9 °F 73.4 °F 70% 29.89 in 6.2 mi West 2.3 mph - N/A   Scattered Clouds
9:30 AM 84.2 °F 92.3 °F 75.2 °F 74% 29.89 in 6.2 mi WSW 3.5 mph - N/A   Scattered Clouds
10:00 AM 86.0 °F 95.1 °F 75.2 °F 70% 29.86 in 6.2 mi WSW 2.3 mph - N/A   Scattered Clouds
10:30 AM 86.0 °F 93.4 °F 73.4 °F 66% 29.86 in 6.2 mi WNW 4.6 mph - N/A   Scattered Clouds
11:00 AM 86 °F - 74 °F 59% 29.87 in 6 mi West 4.6 mph - -   Partly Cloudy
11:00 AM 86.0 °F 93.4 °F 73.4 °F 66% 29.86 in 6.2 mi West 4.6 mph - N/A   Scattered Clouds
11:30 AM 87.8 °F 97.6 °F 75.2 °F 66% 29.83 in 6.2 mi West 4.6 mph - N/A   Scattered Clouds
12:00 PM 87.8 °F 97.6 °F 75.2 °F 66% 29.83 in 6.2 mi West 4.6 mph - N/A   Scattered Clouds
12:30 PM 87.8 °F 95.6 °F 73.4 °F 62% 29.83 in 6.2 mi West 5.8 mph - N/A   Scattered Clouds
1:00 PM 87.8 °F 95.6 °F 73.4 °F 62% 29.80 in 6.2 mi WNW 575.4 mph - N/A   Scattered Clouds
1:30 PM 86.0 °F 93.4 °F 73.4 °F 66% 29.80 in 6.2 mi NW 5.8 mph - N/A   Scattered Clouds
2:00 PM 87 °F - 72 °F 53% 29.80 in 6 mi West 4.6 mph - -   Partly Cloudy
2:00 PM 86.0 °F 93.4 °F 73.4 °F 66% 29.77 in 6.2 mi West 4.6 mph - N/A   Scattered Clouds
5:00 PM 85 °F - 76 °F 68% 29.79 in 6 mi North 4.6 mph - -   Partly Cloudy
6:00 PM 82.4 °F 90.9 °F 77.0 °F 84% 29.80 in 6.2 mi NNW 2.3 mph - N/A   Scattered Clouds
6:30 PM 80.6 °F 87.1 °F 77.0 °F 89% 29.80 in 6.2 mi Calm Calm - N/A   Scattered Clouds
8:00 PM 80 °F - 77 °F 88% 29.86 in 6 mi Calm Calm - -   Partly Cloudy
8:30 PM 78.8 °F - 73.4 °F 83% 29.86 in 4.3 mi South 2.3 mph - N/A Rain Light Rain
9:00 PM 77.0 °F - 75.2 °F 94% 29.86 in 5.0 mi SE 3.5 mph - N/A   Scattered Clouds
9:30 PM 77.0 °F - 75.2 °F 94% 29.86 in 5.0 mi Calm Calm - N/A   Scattered Clouds
10:00 PM 77.0 °F - 75.2 °F 94% 29.86 in 5.0 mi Calm Calm - N/A   Scattered Clouds
10:30 PM 77.0 °F - 73.4 °F 89% 29.86 in 5.0 mi NNE 4.6 mph - N/A   Scattered Clouds
11:00 PM 77 °F - 74 °F 90% 29.88 in 5 mi NE 2.3 mph - -   Partly Cloudy
11:00 PM 77.0 °F - 73.4 °F 89% 29.86 in 5.0 mi East 2.3 mph - N/A   Scattered Clouds
11:30 PM 77.0 °F - 75.2 °F 94% 29.86 in 5.0 mi SE 3.5 mph - N/A   Scattered Clouds